DateTimeUTC,F1_A11,F1_S11,BsB_S11,BsG_S11,BsR_S11,BbsB_S11,BbsG_S11,BbsR_S11,BaB_A11,BaG_A11,BaR_A11,Tu_S11,T_S11,Uu_S11,U_S11,P_S11,T1_A11
2021-10-02T22:00:00Z,00000200,21000000,,,,,,,-000.15,-000.05,-000.27,17.1,24.2,,00.0,0671.9,30.9
2021-10-02T22:01:00Z,00000200,21000000,,,,,,,-000.08,0000.04,0000.12,17.0,24.2,,00.0,0671.9,30.9
2021-10-02T22:02:00Z,00000200,21000000,,,,,,,0000.14,0000.22,0000.06,17.0,24.2,,00.0,0671.9,31.0
2021-10-02T22:03:00Z,00000200,61000000,,,,,,,0000.08,-000.35,-000.04,17.0,24.2,,00.0,0671.9,31.0
2021-10-02T22:04:00Z,00000200,41000000,0000.80,0000.70,0000.19,-000.53,0000.12,0000.32,0000.26,0000.28,0000.30,17.3,24.0,,00.0,0672.8,31.0
2021-10-02T22:05:00Z,00000200,01000000,0006.23,0004.64,0003.29,0001.55,0001.08,0000.83,0063.79,0058.34,0046.57,17.4,24.0,,00.0,0672.9,31.0
2021-10-02T22:06:00Z,00000200,01000000,0008.16,0006.88,0004.43,0001.59,0002.05,0001.11,0124.20,0116.02,0092.74,17.5,24.0,,00.0,0672.9,31.0
2021-10-02T22:07:00Z,00000200,01000000,0007.00,0005.17,0003.41,0001.61,0001.25,0000.82,0089.14,0082.67,0066.58,17.5,24.0,,00.0,0672.9,31.0
2021-10-02T22:08:00Z,00000200,01000000,0011.23,0008.24,0004.79,0002.71,0001.97,0001.07,0139.18,0128.59,0102.96,17.5,24.0,,00.0,0672.9,31.0
2021-10-02T22:09:00Z,00000200,01000000,0013.21,0009.74,0006.46,0003.33,0002.27,0001.94,0171.22,0158.44,0126.79,17.4,24.0,00.0,00.0,0672.9,31.0
2021-10-02T22:10:00Z,00000200,01000000,0014.31,0010.95,0007.15,0003.11,0002.74,0001.79,0190.10,0175.71,0141.06,17.4,23.9,,00.0,0672.9,31.0
2021-10-02T22:11:00Z,00000200,01000000,0003.17,0003.19,0001.96,0001.10,0000.49,0000.70,0061.67,0057.81,0047.26,17.4,23.9,00.0,00.0,0672.9,30.9
2021-10-02T22:12:00Z,00000200,01000000,0001.43,0001.89,0001.40,0000.44,0000.10,0000.09,0030.39,0027.84,0022.53,17.3,23.9,,00.0,0672.9,30.9
2021-10-02T22:13:00Z,00000200,01000000,0004.52,0003.86,0002.36,0000.66,0000.72,0000.49,0055.27,0051.26,0040.44,17.2,23.8,,00.0,0672.9,30.9
2021-10-02T22:14:00Z,00000200,01000000,0011.47,0007.73,0005.19,0002.84,0001.70,0001.56,0134.88,0124.92,0100.71,17.2,23.8,,00.0,0672.9,30.9
2021-10-02T22:15:00Z,00000200,01000000,0006.51,0005.16,0003.55,0001.81,0001.24,0000.98,0092.03,0085.60,0068.50,17.2,23.8,00.0,00.0,0672.9,30.9
2021-10-02T22:16:00Z,00000200,01000000,0009.83,0007.55,0004.81,0001.76,0001.74,0001.05,0125.13,0115.58,0093.37,17.2,23.8,,00.0,0672.9,30.9
2021-10-02T22:17:00Z,00000200,01000000,0006.29,0005.11,0003.45,0000.72,0001.21,0000.88,0089.45,0083.42,0066.69,17.2,23.8,,00.0,0672.9,30.9
2021-10-02T22:18:00Z,00000200,01000000,0007.55,0006.15,0003.93,0001.45,0001.47,0001.10,0101.81,0094.58,0076.33,17.2,23.8,,00.0,0672.9,31.0
2021-10-02T22:19:00Z,00000200,01000000,0010.89,0007.82,0005.05,0001.85,0001.85,0001.39,0123.36,0114.13,0092.36,17.3,23.8,,00.0,0672.9,31.0
2021-10-02T22:20:00Z,00000200,01000000,0015.30,0010.88,0007.13,0002.63,0003.11,0001.83,0178.00,0165.17,0132.99,17.3,23.8,,00.0,0672.9,31.0
2021-10-02T22:21:00Z,00000200,01000000,0011.43,0008.82,0005.32,0002.49,0001.93,0001.13,0146.77,0136.47,0110.63,17.4,23.9,00.0,00.0,0673.0,31.0
2021-10-02T22:22:00Z,00000200,01000000,0006.71,0004.95,0002.95,0001.42,0001.00,0000.94,0083.35,0077.80,0062.37,17.4,23.9,,00.0,0672.9,31.0
2021-10-02T22:23:00Z,00000200,01000000,0004.16,0003.00,0002.02,0001.54,0000.76,0000.44,0060.25,0056.01,0045.25,17.4,23.9,,00.0,0673.0,31.0
2021-10-02T22:24:00Z,00000200,01000000,0001.13,0000.50,0000.32,0000.71,0000.28,-000.19,0007.66,0007.12,0006.00,17.4,23.9,,00.0,0672.9,31.0
2021-10-02T22:25:00Z,00000200,01000000,0000.69,0000.32,0000.05,0000.32,0000.54,-000.35,0001.46,0001.36,0001.12,17.4,23.9,,00.0,0673.0,31.0
2021-10-02T22:26:00Z,00000200,01000000,0000.19,0000.50,0000.17,-000.18,0000.18,0000.04,0001.06,0001.06,0001.06,17.3,23.8,,00.0,0672.9,31.0
2021-10-02T22:27:00Z,00000200,01000000,-000.30,0000.50,0000.25,0000.52,0000.12,0000.09,0000.91,0001.19,0000.23,17.3,23.8,00.0,00.0,0673.0,30.9
2021-10-02T22:28:00Z,00000200,01000000,0000.06,0000.22,-000.03,0000.55,-000.12,0000.03,0000.95,0000.46,0000.94,17.2,23.8,,00.0,0673.0,30.9
2021-10-02T22:29:00Z,00000200,01000000,0000.87,0000.78,0000.69,0000.53,0000.21,0000.06,0007.19,0006.72,0005.14,17.2,23.8,,00.0,0673.0,30.9
2021-10-02T22:30:00Z,00000200,01000000,0006.01,0004.37,0003.11,0000.67,0000.96,0000.89,0064.13,0059.18,0047.96,17.1,23.7,,00.0,0673.0,30.9
2021-10-02T22:31:00Z,00000200,01000000,0010.25,0007.19,0004.95,0002.30,0001.78,0001.39,0108.45,0100.30,0081.14,17.1,23.7,,00.0,0673.0,30.9
2021-10-02T22:32:00Z,00000200,01000000,0018.28,0013.45,0008.50,0003.68,0002.96,0002.27,0197.59,0184.14,0149.09,17.1,23.7,,00.0,0673.0,31.0
2021-10-02T22:33:00Z,00000200,01000000,0018.22,0013.73,0008.69,0003.45,0003.15,0002.12,0205.46,0191.77,0155.60,17.2,23.7,,00.0,0673.0,31.0
2021-10-02T22:34:00Z,00000200,01000000,0015.66,0011.74,0007.79,0003.09,0002.49,0002.00,0184.76,0172.13,0140.46,17.2,23.7,,00.0,0673.0,31.0
2021-10-02T22:35:00Z,00000200,01000000,0004.26,0003.86,0001.98,0001.41,0000.85,0000.38,0063.79,0060.12,0049.02,17.3,23.8,00.0,00.0,0673.0,31.0
2021-10-02T22:36:00Z,00000200,01000000,0002.37,0002.71,0001.53,0000.05,0000.58,0000.40,0035.53,0033.40,0026.75,17.4,23.8,,00.0,0673.0,31.0
2021-10-02T22:37:00Z,00000200,01000000,0003.60,0003.20,0002.23,0000.78,0000.79,0000.86,0048.96,0045.16,0036.92,17.4,23.8,,00.0,0673.0,31.0
2021-10-02T22:38:00Z,00000200,01000000,0000.46,0001.02,0000.87,0000.27,0000.00,0000.17,0015.69,0015.04,0012.06,17.5,23.9,,00.0,0673.0,31.0
2021-10-02T22:39:00Z,00000200,01000000,0000.36,0000.24,-000.09,-000.45,-000.04,0000.06,0001.63,0000.96,0001.26,17.5,23.9,,00.0,0673.0,31.0
2021-10-02T22:40:00Z,00000200,01000000,0000.55,0000.37,0000.09,-000.02,0000.05,-000.08,0001.25,0001.26,0000.50,17.5,23.9,,00.0,0673.0,31.0
2021-10-02T22:41:00Z,00000200,01000000,0000.38,-000.13,0000.31,-000.13,0000.05,-000.04,0000.72,0000.78,0000.76,17.5,23.9,,00.0,0673.0,31.0
2021-10-02T22:42:00Z,00000200,01000000,0000.30,0000.42,0000.20,0000.36,0000.30,-000.05,0000.75,0000.77,0000.57,17.4,23.9,,00.0,0673.0,31.0
2021-10-02T22:43:00Z,00000200,01000000,0000.87,0001.03,0000.64,0000.69,0000.33,-000.05,0011.62,0010.71,0008.67,17.4,23.8,,00.0,0673.0,30.9
2021-10-02T22:44:00Z,00000200,01000000,0001.12,0000.84,0000.52,0000.21,-000.01,0000.12,0007.83,0007.22,0006.15,17.3,23.8,,00.0,0673.0,30.9
2021-10-02T22:45:00Z,00000200,01000000,0000.33,0000.17,0000.26,0000.14,0000.07,-000.26,0000.78,0000.74,0000.25,17.3,23.8,,00.0,0673.0,30.9
2021-10-02T22:46:00Z,00000200,01000000,0001.07,0000.77,0000.08,-000.09,0000.01,0000.21,0000.79,0000.65,0000.43,17.2,23.8,,00.0,0673.0,30.9
2021-10-02T22:47:00Z,00000200,01000000,0000.83,0000.11,0000.18,-000.18,0000.10,-000.13,0000.29,0000.72,0000.53,17.2,23.8,,00.0,0673.0,30.9
2021-10-02T22:48:00Z,00000200,01000000,-000.12,0000.32,0000.16,0000.01,-000.06,-000.20,0000.50,0000.41,0000.39,17.3,23.8,,00.0,0673.0,31.0
2021-10-02T22:49:00Z,00000200,01000000,-000.10,0000.15,0000.12,0000.37,0000.37,-000.02,0000.58,-000.05,0000.35,17.4,23.8,,00.0,0673.0,31.0
2021-10-02T22:50:00Z,00000200,01000000,0000.33,-000.04,-000.11,-000.54,-000.25,-000.27,0000.43,0001.07,0000.24,17.4,23.8,,00.0,0672.9,31.0
2021-10-02T22:51:00Z,00000200,01000000,0000.92,0000.30,0000.05,0000.18,-000.10,-000.10,0000.48,-000.07,0000.54,17.5,23.9,,00.0,0672.9,31.0
2021-10-02T22:52:00Z,00000200,01000000,-000.17,0000.16,0000.04,0000.14,0000.19,-000.05,0000.18,0000.72,-000.05,17.5,23.9,,00.0,0672.9,31.0
2021-10-02T22:53:00Z,00000200,01000000,0000.21,0000.21,0000.54,0000.60,-000.12,-000.15,0003.97,0003.07,0002.88,17.6,23.9,,00.0,0672.9,31.0
2021-10-02T22:54:00Z,00000200,01000000,0012.61,0008.69,0005.81,0002.48,0002.50,0001.64,0126.02,0117.23,0094.76,17.6,24.0,,00.0,0672.9,31.0
2021-10-02T22:55:00Z,00000200,01000000,0021.81,0016.07,0009.92,0004.45,0003.79,0002.40,0236.59,0219.74,0178.44,17.5,23.9,,00.0,0672.9,31.0
2021-10-02T22:56:00Z,00000200,01000000,0019.38,0014.60,0009.68,0004.32,0003.57,0002.61,0226.94,0211.52,0171.99,17.4,23.9,,00.0,0672.9,31.0
2021-10-02T22:57:00Z,00000200,41000000,,,,,,,0054.86,0052.04,0042.75,17.5,23.9,,00.0,0673.0,31.0
2021-10-02T22:58:00Z,00000200,61000000,,,,,,,0001.39,0001.28,0000.87,17.0,24.0,,00.0,0672.0,30.9
2021-10-02T22:59:00Z,00000200,21000000,,,,,,,0000.97,0000.97,0000.74,17.0,24.1,,00.0,0671.9,30.9
